Location: Days
(41.3591°N, 106.7339°W)
Time: 10:04:01
(UTC+00:00)

RS-15 - Visible Passes

Search period start: 30 June 2022 00:00
Search period end: 10 July 2022 00:00
Orbit: 1881 x 2163 km, 64.8° (Epoch: 29 June)

Date Brightness Start Highest point End Pass type
(mag) Time Alt. Az. Time Alt. Az. Time Alt. Az.
30 Jun 9.4 04:32:12 10° NNW 04:42:52 32° NNE 04:53:18 10° E visible
30 Jun 8.2 06:45:16 10° NNW 06:57:43 79° NE 07:05:38 26° SE visible
30 Jun 8.8 08:59:05 10° NW 09:08:55 30° WSW 09:13:19 24° SW visible
01 Jul 9.6 03:55:44 10° NW 04:05:53 28° NNE 04:15:51 10° ENE visible
01 Jul 8.4 06:09:09 10° NNW 06:21:29 65° NE 06:30:11 22° SE visible
01 Jul 8.6 08:22:26 10° NW 08:33:21 40° WSW 08:37:52 31° SW visible
02 Jul 9.7 03:19:05 10° NW 03:28:47 25° NNE 03:38:22 10° ENE visible
02 Jul 8.6 05:33:02 10° NNW 05:45:07 54° NE 05:54:47 17° ESE visible
02 Jul 8.3 07:46:00 10° NW 07:57:39 52° WSW 08:02:29 36° SSW visible
03 Jul 8.9 04:56:53 10° NNW 05:08:36 45° NE 05:19:28 11° ESE visible
03 Jul 8.1 07:09:43 10° NW 07:21:51 67° WSW 07:27:11 38° S visible
03 Jul 9.4 09:26:30 10° WNW 09:31:41 14° W 09:34:53 12° WSW visible
04 Jul 9.1 04:20:40 10° NNW 04:31:55 38° NE 04:42:51 10° E visible
04 Jul 8.1 06:33:31 10° NW 06:45:55 83° WSW 06:51:56 37° SSE visible
04 Jul 9.1 08:48:25 10° NW 08:56:22 21° W 08:59:38 18° WSW visible
05 Jul 9.3 03:44:21 10° NNW 03:55:06 32° NNE 04:05:35 10° E visible
05 Jul 8.1 05:57:23 10° NNW 06:09:50 81° NE 06:16:44 32° SE visible
05 Jul 8.9 08:11:18 10° NW 08:20:56 29° WSW 08:24:27 25° SW visible
06 Jul 9.5 03:07:55 10° NW 03:18:08 28° NNE 03:28:10 10° ENE visible
06 Jul 8.3 05:21:16 10° NNW 05:33:38 67° NE 05:41:35 25° SE visible
06 Jul 8.6 07:34:37 10° NW 07:45:24 39° WSW 07:49:18 31° SW visible
07 Jul 8.6 04:45:09 10° NNW 04:57:17 55° NE 05:06:30 19° ESE visible
07 Jul 8.4 06:58:10 10° NW 07:09:43 50° WSW 07:14:13 36° SSW visible
08 Jul 8.8 04:09:00 10° NNW 04:20:46 46° NE 04:31:26 12° ESE visible
08 Jul 8.2 06:21:52 10° NW 06:33:55 64° WSW 06:39:10 38° S visible
08 Jul 9.5 08:39:06 10° WNW 08:43:40 13° W 08:46:53 11° WSW visible
09 Jul 9.0 03:32:48 10° NNW 03:44:08 38° NE 03:55:06 10° ESE visible
09 Jul 8.1 05:45:39 10° NW 05:58:00 80° WSW 06:04:09 36° SSE visible
09 Jul 9.3 08:00:45 10° WNW 08:08:23 20° W 08:11:53 17° WSW visible
